Overview Statistics Trail Chart Weather Telemetry Raw packets
 

This is the latest recevied weather packets stored in our database for station/object SP3ZBZ-13. If no packets are shown the sender has not sent any weather packets the latest 10 day(s).

<< 26 27 28 29 30 31 32 >>
Time Temp. Humidity Pressure Rain* Wind** Luminosity Snow
1787990399 19.44° C 86% 1006.6 hPa 8.13 mm - 287 W/m² -
1787989498 19.44° C 87% 1006.5 hPa 8.13 mm - 416 W/m² -
1787988597 18.89° C 88% 1006.5 hPa 8.13 mm - 218 W/m² -
1787987696 18.33° C 90% 1006.3 hPa 8.13 mm - 214 W/m² -
1787986795 18.33° C 90% 1006.3 hPa 8.13 mm - 207 W/m² -
1787985894 17.78° C 92% 1006.3 hPa 8.13 mm - 148 W/m² -
1787984993 17.78° C 92% 1006.3 hPa 8.13 mm - 98 W/m² -
1787984093 17.22° C 93% 1006.2 hPa 8.13 mm - 101 W/m² -
1787983191 17.22° C 93% 1006.3 hPa 8.13 mm - 52 W/m² -
1787982290 17.22° C 94% 1006.2 hPa 8.13 mm - 53 W/m² -
1787981389 17.22° C 95% 1005.9 hPa 8.13 mm - 23 W/m² -
1787980488 17.22° C 95% 1005.5 hPa 8.13 mm - 19 W/m² -
1787979587 17.22° C 95% 1005.5 hPa 7.87 mm - 18 W/m² -
1787978686 17.22° C 94% 1005.7 hPa 7.87 mm - 6 W/m² -
1787977785 17.22° C 94% 1005.8 hPa 7.87 mm - 1 W/m² -
1787976885 17.78° C 93% 1006.3 hPa 7.87 mm - 1 W/m² -
1787975983 17.78° C 93% 1006.3 hPa 7.37 mm - - -
1787975092 17.78° C 92% 1005.9 hPa 6.6 mm - - -
1787974182 17.78° C 92% 1005.9 hPa 6.1 mm - - -
1787973280 18.33° C 92% 1005.6 hPa 5.33 mm - - -
1787972379 18.33° C 93% 1005.1 hPa 4.83 mm - - -
1787971478 17.78° C 94% 1005.4 hPa 4.57 mm - - -
1787970577 17.78° C 94% 1005.3 hPa 4.06 mm - - -
1787969676 17.22° C 94% 1005.2 hPa 3.3 mm - - -
1787968775 16.67° C 95% 1005.1 hPa 2.79 mm - - -

* Rain latest 24 hours (hover to see other rain measurements)
** Current wind speed in m/s (hover to see current wind gust speed)